User: anonymous   Login
Location: Étavigny
(49.1201°N, 2.9800°E)
Time: 22:02:49
(UTC+00:00)
Language:

Cosmos 2228 - Orbit

View from above orbital plane
View from above orbital plane
View from above satellite
View from above satellite

Ground track
Ground track

The orbit data is extracted from the following two-line orbital elements,

1 22286U 92094A   24109.64882455  .00004942  00000-0  48488-3 0  9996
2 22286  82.5215 175.4885 0021411  99.4749 260.8892 14.91856227672975
Epoch (UTC): 18 April 2024 15:34:18
Eccentricity: 0.0021411
inclination: 82.5215°
perigee height: 577 km
apogee height: 607 km
right ascension of ascending node: 175.4885°
argument of perigee: 99.4749°
revolutions per day: 14.91856227
mean anomaly at epoch: 260.8892°
orbit number at epoch: 67297

The dashed part of the orbit path shows where the satellite is in the earth's shadow,  

DLR